Theta_e
315 316 316 312 311 310 309 309 309 309 309 311 313 311 312 310 311 311 311 310 310 311 312 314 313 314 315 316 317 317 313 314 314 312 314 313 314 314 315 316 318 321 318 321 325
315 316 312 310 309 309 308 308 308 309 309 310 310 311 310 310 310 311 311 310 310 313 314 314 313 314 316 316 316 314 313 314 311 310 312 313 314 315 314 315 316 317 317 319 325
315 310 311 310 308 308 308 308 308 308 309 309 309 310 310 310 311 311 311 310 311 314 313 312 313 315 315 315 314 312 313 311 312 313 314 313 313 314 314 313 315 316 316 317 324
314 311 310 309 308 307 308 308 309 309 309 309 309 309 309 310 310 311 311 311 314 314 313 312 314 314 313 313 314 313 311 312 313 313 313 313 313 313 314 315 315 315 316 317 319
314 313 310 308 307 307 308 308 309 309 309 309 309 308 308 311 314 314 311 312 314 313 312 313 314 313 311 312 312 312 311 312 313 313 313 313 313 313 313 314 315 315 315 316 319
313 314 309 307 307 307 308 308 308 308 308 308 308 308 309 312 312 314 314 313 313 311 312 313 314 313 312 311 311 310 311 312 312 312 312 312 310 312 311 313 313 314 315 315 318
313 315 309 307 307 307 307 308 308 307 307 307 307 308 312 311 313 312 314 312 311 311 312 313 314 313 312 310 311 310 310 310 311 311 311 312 309 309 311 311 312 313 314 315 317
313 314 309 307 307 307 307 307 307 307 307 307 307 308 310 311 313 311 313 312 311 310 312 312 312 313 312 311 309 307 306 309 307 310 311 308 308 306 311 311 311 312 313 314 314
314 313 307 307 307 307 307 307 307 307 307 307 307 309 309 311 313 310 311 311 311 311 311 312 313 311 310 307 307 305 307 307 307 309 310 308 307 308 311 312 312 313 313 313 313
313 312 307 307 307 307 307 307 307 307 307 307 308 309 308 311 312 310 310 311 311 311 312 313 312 307 305 305 308 307 306 307 307 309 310 310 309 307 311 311 312 313 313 313 313
313 311 307 307 306 306 307 309 308 309 307 308 308 308 308 311 312 310 310 312 312 311 309 309 308 309 308 305 304 305 305 307 308 309 310 310 308 308 310 310 310 311 311 312 311
312 309 307 307 307 307 308 308 308 309 308 311 310 308 310 312 312 311 311 311 311 308 307 307 307 306 306 305 306 307 308 310 308 308 310 308 309 307 306 307 307 307 308 309 310
312 310 307 307 307 308 308 308 308 308 308 309 309 310 311 311 311 311 311 310 307 308 307 307 308 306 307 307 308 308 308 308 309 307 305 304 305 304 305 306 308 307 308 309 310
312 311 309 309 311 308 308 308 308 311 308 310 313 310 311 310 310 311 311 311 308 307 305 307 306 306 305 307 307 310 307 307 307 307 308 305 306 305 304 306 305 308 310 311 311
311 313 313 312 313 309 308 308 310 313 309 309 313 311 311 310 310 311 311 311 307 308 307 308 307 307 308 308 306 308 306 307 306 307 307 308 306 305 302 307 306 307 309 310 311
313 312 314 313 315 309 309 308 315 308 306 313 311 311 310 310 310 310 312 310 309 308 306 308 308 308 308 306 307 305 305 304 304 304 306 306 304 304 304 307 308 307 309 310 311
312 314 313 316 315 314 312 314 310 306 308 312 312 310 310 310 310 309 309 308 308 308 309 309 309 308 308 308 307 305 305 306 308 306 306 303 304 304 305 305 307 307 309 310 311
310 314 314 315 315 317 315 313 306 306 308 310 311 309 311 310 310 309 308 309 308 306 307 309 310 309 308 308 308 305 306 307 306 306 306 305 307 305 304 305 308 309 310 310 311
307 310 312 315 316 317 316 315 310 307 310 312 312 312 312 311 310 309 308 309 308 305 308 307 307 308 307 307 308 307 307 304 305 293 304 305 305 305 306 306 307 308 310 310 311
305 307 307 313 315 317 315 312 310 310 310 312 314 313 313 311 311 309 309 307 308 306 308 307 309 308 308 308 307 306 304 308 304 303 305 303 305 306 308 307 306 306 308 309 310
302 305 306 309 313 314 315 310 310 311 312 313 313 313 312 312 310 310 309 309 308 306 309 307 310 309 308 308 308 307 307 306 306 306 305 304 306 301 308 306 305 306 308 309 310
299 304 305 308 307 301 309 311 311 311 312 313 313 311 312 310 310 311 310 309 309 307 309 308 309 311 310 307 306 307 307 306 307 306 303 305 307 306 305 306 307 308 308 310 310
297 298 303 306 307 306 305 310 310 312 312 312 313 313 311 311 313 311 310 310 310 308 309 308 309 307 310 309 306 307 305 305 304 305 304 307 306 304 305 306 308 308 309 309 309
297 299 299 304 301 306 308 310 312 311 312 312 311 312 313 313 312 312 312 311 310 310 311 309 307 309 310 310 307 309 307 305 307 309 307 308 306 304 305 305 306 308 309 308 308
298 297 297 302 303 303 307 308 310 312 311 312 312 312 313 313 313 314 312 311 309 310 310 309 309 310 309 310 308 308 308 305 308 308 309 308 307 309 306 305 307 308 307 306 305
298 297 297 296 297 303 305 306 310 309 311 312 310 312 311 312 311 313 312 310 311 309 310 308 311 309 310 309 309 311 309 307 308 306 310 304 307 306 307 306 306 306 305 304 303
297 297 297 296 297 302 305 306 307 308 308 309 310 311 311 310 309 309 310 310 309 309 310 310 310 309 307 308 309 313 309 308 308 307 308 310 308 305 304 305 306 305 304 303 301
Wind_Speed
19 18 19 22 23 24 24 24 24 22 20 18 15 17 19 24 18 16 18 14 17 9 16 13 14 14 13 8 6 5 4 3 6 6 3 7 4 5 5 6 6 8 4 7 17
21 20 21 23 24 24 24 24 23 22 21 22 22 23 23 18 15 19 15 14 12 13 17 15 17 16 8 6 4 4 4 8 6 5 4 9 5 10 5 4 6 7 7 7 20
20 22 22 23 23 23 23 23 23 21 21 23 22 19 17 12 10 15 17 14 15 16 15 16 16 13 5 5 3 3 5 6 4 4 6 10 3 6 7 3 9 12 11 11 19
21 22 23 23 23 22 22 21 21 22 20 20 19 16 15 13 7 8 16 15 17 17 17 16 19 9 5 5 3 4 2 5 6 6 7 8 7 3 9 4 1 4 8 12 17
23 22 24 25 23 22 21 20 20 19 18 17 17 16 15 12 9 4 18 18 17 18 17 18 18 8 8 8 6 3 4 5 7 7 8 8 3 3 8 9 11 4 8 13 15
22 21 25 25 24 22 21 19 19 18 17 16 16 16 15 6 11 7 16 17 18 18 18 16 13 8 10 7 4 5 7 6 4 4 4 3 1 2 1 1 11 12 6 11 16
22 22 26 25 23 22 20 19 18 17 15 15 15 14 13 12 8 10 16 15 16 17 18 14 14 7 12 7 7 10 5 2 3 2 2 1 4 6 6 7 3 10 9 9 15
24 23 26 25 23 21 20 18 16 15 14 13 13 15 7 13 10 12 15 16 16 16 15 12 12 12 5 15 6 5 5 3 1 2 1 3 7 2 2 3 5 5 8 13 13
24 23 26 25 23 21 19 18 15 14 13 13 11 9 4 11 13 13 15 15 16 15 15 14 11 7 7 6 5 6 4 3 1 0 1 3 5 2 2 2 2 5 4 8 12
23 23 26 25 24 21 19 18 16 14 12 10 6 6 7 9 16 16 16 17 15 19 14 9 4 4 3 3 7 6 4 2 3 2 1 3 8 7 8 8 12 12 11 12 12
21 25 26 25 24 24 21 20 13 7 17 5 7 3 8 16 18 16 18 18 18 13 5 4 4 7 10 4 4 7 5 5 2 1 1 3 5 10 15 11 15 14 14 17 17
20 24 25 25 24 25 26 16 14 8 6 3 2 5 10 15 8 18 22 10 7 5 5 5 4 6 8 6 7 5 5 3 2 3 2 2 7 8 10 5 8 11 8 7 7
20 22 25 24 24 25 28 18 18 17 7 4 5 7 10 12 6 20 22 11 6 5 4 6 2 12 6 4 7 1 6 4 4 2 3 3 6 5 2 6 12 14 9 8 10
22 21 23 23 20 24 26 19 17 11 4 6 7 6 10 8 4 16 17 7 3 6 7 4 3 7 8 5 5 5 4 6 7 4 2 3 3 4 4 4 11 16 16 14 14
22 22 24 24 11 24 24 24 16 9 4 4 6 9 13 7 11 8 13 4 8 6 6 5 7 7 4 5 5 3 5 6 4 4 4 2 4 6 3 5 5 12 19 22 25
21 21 23 24 12 24 21 24 14 5 6 4 4 6 6 3 3 7 5 6 7 5 5 3 2 3 4 5 3 9 7 8 5 3 0 1 4 5 1 3 2 6 18 25 27
24 22 26 26 19 24 24 23 4 5 2 5 5 5 4 6 3 3 7 7 7 6 4 1 2 1 4 8 5 4 5 3 2 2 4 3 3 6 1 1 4 9 16 20 23
13 23 26 26 22 25 31 4 4 6 6 3 5 7 5 6 2 2 7 7 3 5 4 6 3 7 3 5 8 6 6 5 7 4 2 2 5 4 1 4 8 14 18 19 21
5 12 18 34 23 28 25 10 11 7 8 9 5 6 4 3 6 4 7 10 9 8 7 5 3 1 2 3 4 6 5 5 7 2 3 3 4 3 1 6 12 13 16 18 18
8 7 9 18 29 30 9 12 6 4 6 4 6 5 7 8 6 6 8 5 6 8 2 7 4 2 0 3 4 4 7 4 2 4 3 3 4 5 7 9 7 8 14 16 15
6 7 7 11 24 17 12 5 3 5 5 5 5 5 5 7 6 7 10 2 4 7 3 5 4 1 3 5 8 3 3 3 5 4 5 3 6 5 13 9 9 12 14 15 15
4 2 5 16 3 2 5 4 5 5 3 3 3 4 7 8 6 6 10 2 6 13 9 4 5 4 6 1 1 1 6 6 5 5 1 3 5 3 11 15 17 13 13 14 13
5 2 4 9 3 3 3 3 5 5 4 4 3 2 1 6 4 5 6 1 6 7 9 7 3 3 4 3 2 5 5 3 4 3 6 6 4 2 7 10 11 15 15 13 13
3 2 2 4 0 1 4 4 8 3 4 3 4 4 4 3 4 6 4 2 5 4 4 5 4 9 12 4 7 6 5 6 5 3 5 7 7 8 8 8 12 16 14 13 11
1 1 2 2 4 2 7 6 5 5 3 4 1 3 5 4 3 4 3 3 3 1 2 4 6 3 2 2 2 5 9 11 11 15 8 11 11 23 19 13 23 20 17 15 12
2 2 4 2 2 2 3 5 9 3 6 6 5 7 4 6 5 7 7 4 5 2 3 2 4 3 5 2 4 3 5 15 17 5 1 7 5 4 23 21 21 22 21 16 13
6 6 3 1 2 2 2 2 4 7 1 9 10 6 9 8 13 9 7 9 5 5 3 4 6 4 4 4 2 5 13 12 6 4 9 10 6 8 7 19 25 25 22 18 14
Wind_Direction
204 203 198 197 198 196 196 196 196 192 189 180 185 203 196 236 241 237 234 221 218 211 194 188 177 172 162 170 158 150 69 146 184 157 194 161 162 163 161 155 174 187 156 138 175
203 202 197 197 198 193 195 196 195 191 188 188 202 209 216 226 243 241 227 222 216 207 192 184 178 162 156 155 148 103 106 199 181 184 174 172 185 164 155 160 206 205 197 168 179
208 201 199 197 196 194 194 197 193 190 189 197 203 204 210 214 235 250 216 212 203 200 187 185 178 162 135 155 142 126 163 166 176 175 154 158 164 171 161 208 219 215 202 189 185
207 198 199 197 194 198 194 198 192 188 191 196 199 198 199 193 192 214 197 201 193 189 183 178 170 154 127 143 132 101 106 138 142 132 137 159 149 187 214 199 185 235 215 202 194
208 196 198 196 194 194 195 198 194 188 189 194 194 192 189 196 234 222 183 192 189 184 183 176 174 155 145 138 118 97 142 122 126 128 130 146 164 228 251 236 238 267 217 211 206
207 195 196 196 194 194 192 195 194 190 186 193 190 191 186 211 228 212 185 186 189 181 180 179 187 180 121 134 113 131 122 117 121 120 103 152 176 188 249 298 234 228 221 222 215
203 196 194 193 192 191 192 190 190 188 184 189 189 190 200 217 212 193 185 183 185 183 178 176 171 169 138 111 121 122 89 83 63 120 66 96 297 232 242 270 285 227 226 229 222
195 199 191 189 189 187 186 185 185 184 182 188 187 186 196 216 199 185 179 177 172 176 181 173 162 131 112 123 61 83 57 117 20 158 48 111 260 298 319 228 247 249 237 238 237
196 198 186 186 185 184 180 181 177 178 178 182 182 176 230 192 182 178 175 171 161 161 165 158 159 104 124 97 53 17 169 167 308 21 120 108 273 311 170 131 278 318 292 258 253
199 192 185 185 182 179 175 173 168 171 168 167 176 191 217 193 176 170 167 162 153 153 140 147 112 86 50 102 184 178 145 158 190 233 53 110 265 288 277 284 289 301 293 283 276
202 187 184 183 179 175 174 158 150 169 171 179 192 211 171 161 161 166 161 160 150 155 133 93 105 181 190 156 123 129 118 136 158 38 207 214 267 280 287 284 292 300 299 291 292
199 180 181 181 178 175 174 165 178 156 138 211 203 201 169 154 135 160 159 153 153 130 116 56 205 191 121 125 114 115 119 136 77 52 146 7 281 271 314 315 332 318 324 319 306
192 184 181 180 180 180 182 167 174 147 113 238 198 186 169 175 138 165 171 151 119 121 141 152 226 139 126 127 118 108 146 173 146 115 64 329 312 337 12 40 48 52 70 61 72
179 177 177 174 179 184 188 177 174 161 100 198 204 198 176 173 87 167 170 158 89 152 145 147 119 139 126 157 134 153 168 125 121 102 190 0 267 313 327 41 39 49 59 68 86
184 179 171 173 183 185 187 182 174 171 165 164 158 172 162 169 137 168 164 124 143 147 133 199 158 140 140 188 153 174 118 115 98 97 98 335 89 269 316 52 20 45 75 84 90
193 183 175 178 177 183 181 181 161 64 233 165 131 158 118 87 88 128 141 109 112 93 38 127 114 121 139 67 66 151 83 55 52 87 91 198 140 279 214 164 114 81 96 95 92
187 184 182 179 186 176 172 160 84 168 283 184 180 168 126 145 115 145 158 152 153 120 165 81 93 71 135 84 11 86 98 49 12 357 215 4 110 239 233 104 147 129 107 96 93
153 185 186 189 189 173 164 131 154 191 185 119 120 118 154 148 87 151 130 165 218 96 136 151 192 163 178 174 172 182 164 157 190 188 224 67 222 241 216 129 128 123 108 98 93
147 152 168 197 190 177 167 192 201 188 147 141 95 118 161 190 130 150 192 193 184 185 145 133 194 92 123 156 155 183 193 143 105 29 74 207 277 311 105 121 135 127 112 100 100
203 164 191 167 184 181 180 207 153 145 122 157 148 159 165 180 134 164 167 191 191 188 172 195 109 30 198 123 62 160 158 80 12 132 223 262 258 215 181 176 173 140 115 110 101
165 149 199 205 161 173 200 171 151 176 145 152 141 138 157 167 153 187 189 213 197 174 141 135 104 12 127 215 166 126 181 61 121 140 163 160 250 214 178 166 160 150 130 124 113
161 352 168 188 93 23 206 189 141 147 177 138 103 107 154 160 149 182 195 252 158 147 164 197 115 153 189 274 296 169 182 162 144 219 260 143 269 162 149 163 154 142 135 127 119
148 128 213 152 156 185 172 177 176 146 175 152 120 107 135 151 141 162 159 96 178 159 162 182 170 85 10 350 359 235 169 153 108 84 195 139 248 32 128 148 160 151 144 137 130
145 132 73 184 180 216 132 178 178 200 144 123 111 92 124 116 31 149 124 163 135 170 165 127 143 182 204 182 134 190 182 175 149 175 164 220 151 190 198 183 175 162 155 148 142
118 134 124 181 193 193 179 178 163 157 183 165 111 165 155 131 93 116 118 113 51 82 81 140 178 129 75 43 165 171 173 176 197 219 188 220 179 190 191 186 181 171 163 159 153
144 130 100 108 334 122 218 198 181 138 154 173 149 164 154 150 186 173 146 171 171 133 107 14 145 113 196 179 12 210 193 195 210 193 67 145 220 216 181 173 174 175 170 168 162
175 140 139 358 132 190 169 186 187 137 78 155 155 151 169 160 127 118 115 101 117 139 130 128 131 155 217 162 134 287 217 191 183 186 170 197 190 140 141 169 180 179 179 177 171